Time,TemperatureF,DewpointF,PressureIn,WindDirection,WindDirectionDegrees,WindSpeedMPH,WindSpeedGustMPH,Humidity,HourlyPrecipIn,Conditions,Clouds,dailyrainin,SolarRadiationWatts/m^2,SoftwareType,DateUTC
2013-01-27 00:00:00,13.1,-1.2,30.17,NW,310,6.0,15.0,52,0.00,,OVC021,0.00,0.00,VWS V14.01,2013-01-27 05:00:00,
2013-01-27 00:05:00,13.0,-0.9,30.16,NNW,329,11.0,14.0,53,0.00,,OVC021,0.00,0.00,VWS V14.01,2013-01-27 05:05:00,
2013-01-27 00:10:00,13.0,-0.9,30.17,NNW,335,4.0,13.0,53,0.00,,OVC021,0.00,0.00,VWS V14.01,2013-01-27 05:10:00,
2013-01-27 00:15:00,13.0,-0.9,30.17,WNW,288,11.0,14.0,53,0.00,,OVC021,0.00,0.00,VWS V14.01,2013-01-27 05:15:00,
2013-01-27 00:20:00,13.0,-0.5,30.17,NW,315,6.0,14.0,54,0.00,,OVC021,0.00,0.00,VWS V14.01,2013-01-27 05:20:00,
2013-01-27 00:25:00,12.9,-0.6,30.16,West,275,9.0,12.0,54,0.00,,OVC021,0.00,0.00,VWS V14.01,2013-01-27 05:25:00,
2013-01-27 00:30:00,12.9,-0.6,30.16,West,274,6.0,19.0,54,0.00,,OVC021,0.00,0.00,VWS V14.01,2013-01-27 05:30:00,
2013-01-27 00:35:00,12.9,-0.2,30.17,WNW,294,5.0,14.0,55,0.00,,OVC021,0.00,0.00,VWS V14.01,2013-01-27 05:35:00,
2013-01-27 00:40:00,12.7,-0.4,30.17,WNW,296,11.0,13.0,55,0.00,,OVC021,0.00,0.00,VWS V14.01,2013-01-27 05:40:00,
2013-01-27 00:45:00,12.7,-0.4,30.17,WNW,294,6.0,14.0,55,0.00,,OVC021,0.00,0.00,VWS V14.01,2013-01-27 05:45:00,
2013-01-27 00:50:00,12.7,0.0,30.17,WNW,297,7.0,12.0,56,0.00,,OVC021,0.00,0.00,VWS V14.01,2013-01-27 05:50:00,
2013-01-27 00:55:00,12.6,-0.1,30.17,WNW,285,4.0,11.0,56,0.00,,OVC021,0.00,0.00,VWS V14.01,2013-01-27 05:55:00,
2013-01-27 01:00:00,12.5,-0.2,30.17,West,277,6.0,11.0,56,0.00,,OVC021,0.00,0.00,VWS V14.01,2013-01-27 06:00:00,
2013-01-27 01:05:00,12.6,0.3,30.18,NW,319,7.0,11.0,57,0.00,,OVC021,0.00,0.00,VWS V14.01,2013-01-27 06:05:00,
2013-01-27 01:10:00,12.7,0.4,30.18,NW,313,7.0,10.0,57,0.00,,OVC021,0.00,0.00,VWS V14.01,2013-01-27 06:10:00,
2013-01-27 01:15:00,12.7,0.4,30.18,NW,312,0.0,9.0,57,0.00,,OVC021,0.00,0.00,VWS V14.01,2013-01-27 06:15:00,
2013-01-27 01:20:00,12.7,0.4,30.18,NW,316,4.0,13.0,57,0.00,,OVC021,0.00,0.00,VWS V14.01,2013-01-27 06:20:00,
2013-01-27 01:25:00,12.7,0.4,30.19,WNW,299,6.0,8.0,57,0.00,,OVC021,0.00,0.00,VWS V14.01,2013-01-27 06:25:00,
2013-01-27 01:30:00,12.6,0.3,30.19,West,274,6.0,9.0,57,0.00,,OVC021,0.00,0.00,VWS V14.01,2013-01-27 06:30:00,
2013-01-27 01:35:00,12.5,0.5,30.19,NW,313,3.0,10.0,58,0.00,,OVC021,0.00,0.00,VWS V14.01,2013-01-27 06:35:00,
2013-01-27 01:40:00,12.5,0.5,30.20,WNW,293,3.0,8.0,58,0.00,,OVC021,0.00,0.00,VWS V14.01,2013-01-27 06:40:00,
2013-01-27 01:45:00,12.4,0.4,30.20,West,278,5.0,6.0,58,0.00,,OVC021,0.00,0.00,VWS V14.01,2013-01-27 06:45:00,
2013-01-27 01:50:00,12.3,0.3,30.20,WNW,292,2.0,8.0,58,0.00,,OVC021,0.00,0.00,VWS V14.01,2013-01-27 06:50:00,
2013-01-27 01:55:00,12.3,0.3,30.20,NW,326,2.0,8.0,58,0.00,,OVC021,0.00,0.00,VWS V14.01,2013-01-27 06:55:00,
2013-01-27 02:00:00,12.3,0.3,30.20,NW,312,4.0,9.0,58,0.00,,OVC021,0.00,0.00,VWS V14.01,2013-01-27 07:00:00,
2013-01-27 02:05:00,12.3,0.3,30.20,West,267,6.0,10.0,58,0.00,,OVC021,0.00,0.00,VWS V14.01,2013-01-27 07:05:00,
2013-01-27 02:10:00,12.2,0.6,30.20,WNW,283,6.0,9.0,59,0.00,,OVC021,0.00,0.00,VWS V14.01,2013-01-27 07:10:00,
2013-01-27 02:15:00,12.2,0.6,30.21,WNW,299,3.0,11.0,59,0.00,,OVC021,0.00,0.00,VWS V14.01,2013-01-27 07:15:00,
2013-01-27 02:20:00,12.2,1.0,30.20,NW,315,9.0,12.0,60,0.00,,OVC021,0.00,0.00,VWS V14.01,2013-01-27 07:20:00,
2013-01-27 02:25:00,12.5,0.9,30.20,NW,316,6.0,10.0,59,0.00,,OVC021,0.00,0.00,VWS V14.01,2013-01-27 07:25:00,
2013-01-27 02:30:00,12.5,0.9,30.20,NW,319,2.0,12.0,59,0.00,,OVC021,0.00,0.00,VWS V14.01,2013-01-27 07:30:00,
2013-01-27 02:35:00,12.4,0.8,30.21,WNW,300,2.0,5.0,59,0.00,,OVC021,0.00,0.00,VWS V14.01,2013-01-27 07:35:00,
2013-01-27 02:40:00,12.3,1.1,30.21,NW,312,4.0,6.0,60,0.00,,OVC021,0.00,0.00,VWS V14.01,2013-01-27 07:40:00,
2013-01-27 02:45:00,12.4,1.2,30.21,NW,312,3.0,13.0,60,0.00,,OVC021,0.00,0.00,VWS V14.01,2013-01-27 07:45:00,
2013-01-27 02:50:00,12.3,1.1,30.21,WNW,294,5.0,7.0,60,0.00,,OVC021,0.00,0.00,VWS V14.01,2013-01-27 07:50:00,
2013-01-27 02:55:00,12.3,1.1,30.21,WNW,288,4.0,9.0,60,0.00,,OVC021,0.00,0.00,VWS V14.01,2013-01-27 07:55:00,
2013-01-27 03:00:00,12.2,1.0,30.21,NW,312,7.0,8.0,60,0.00,,OVC021,0.00,0.00,VWS V14.01,2013-01-27 08:00:00,
2013-01-27 03:05:00,12.2,1.0,30.21,NW,308,6.0,8.0,60,0.00,,OVC021,0.00,0.00,VWS V14.01,2013-01-27 08:05:00,
2013-01-27 03:10:00,12.2,1.0,30.21,NW,315,7.0,11.0,60,0.00,,OVC021,0.00,0.00,VWS V14.01,2013-01-27 08:10:00,
2013-01-27 03:15:00,12.3,1.1,30.21,West,278,5.0,8.0,60,0.00,,OVC021,0.00,0.00,VWS V14.01,2013-01-27 08:15:00,
2013-01-27 03:20:00,12.4,1.2,30.21,NW,315,5.0,9.0,60,0.00,,OVC021,0.00,0.00,VWS V14.01,2013-01-27 08:20:00,
2013-01-27 03:25:00,12.5,1.3,30.21,West,281,5.0,11.0,60,0.00,,OVC021,0.00,0.00,VWS V14.01,2013-01-27 08:25:00,
2013-01-27 03:30:00,12.5,1.3,30.21,WNW,292,6.0,13.0,60,0.00,,OVC021,0.00,0.00,VWS V14.01,2013-01-27 08:30:00,
2013-01-27 03:35:00,12.5,1.3,30.21,NW,309,4.0,10.0,60,0.00,,OVC021,0.00,0.00,VWS V14.01,2013-01-27 08:35:00,
2013-01-27 03:40:00,12.5,1.6,30.21,West,279,4.0,10.0,61,0.00,,OVC021,0.00,0.00,VWS V14.01,2013-01-27 08:40:00,
2013-01-27 03:45:00,12.5,1.6,30.22,NW,305,2.0,8.0,61,0.00,,OVC021,0.00,0.00,VWS V14.01,2013-01-27 08:45:00,
2013-01-27 03:50:00,12.5,1.6,30.22,WNW,302,4.0,8.0,61,0.00,,OVC021,0.00,0.00,VWS V14.01,2013-01-27 08:50:00,
2013-01-27 03:55:00,12.6,1.7,30.22,WNW,282,4.0,8.0,61,0.00,,OVC021,0.00,0.00,VWS V14.01,2013-01-27 08:55:00,
2013-01-27 04:00:00,12.6,1.7,30.22,WNW,298,4.0,9.0,61,0.00,,OVC021,0.00,0.00,VWS V14.01,2013-01-27 09:00:00,
2013-01-27 04:05:00,12.6,1.7,30.22,WNW,300,3.0,7.0,61,0.00,,OVC021,0.00,0.00,VWS V14.01,2013-01-27 09:05:00,
2013-01-27 04:10:00,12.5,1.6,30.22,WNW,290,5.0,9.0,61,0.00,,OVC021,0.00,0.00,VWS V14.01,2013-01-27 09:10:00,
2013-01-27 04:15:00,12.5,1.6,30.23,WNW,298,8.0,9.0,61,0.00,,OVC021,0.00,0.00,VWS V14.01,2013-01-27 09:15:00,
2013-01-27 04:20:00,12.6,1.7,30.22,WNW,287,3.0,8.0,61,0.00,,OVC021,0.00,0.00,VWS V14.01,2013-01-27 09:20:00,
2013-01-27 04:25:00,12.6,1.7,30.23,WNW,294,4.0,11.0,61,0.00,,OVC021,0.00,0.00,VWS V14.01,2013-01-27 09:25:00,
2013-01-27 04:30:00,12.6,1.7,30.22,WNW,294,4.0,10.0,61,0.00,,OVC021,0.00,0.00,VWS V14.01,2013-01-27 09:30:00,
2013-01-27 04:35:00,12.5,1.6,30.23,WNW,297,6.0,9.0,61,0.00,,OVC021,0.00,0.00,VWS V14.01,2013-01-27 09:35:00,
2013-01-27 04:40:00,12.5,1.6,30.23,WNW,285,6.0,8.0,61,0.00,,OVC021,0.00,0.00,VWS V14.01,2013-01-27 09:40:00,
2013-01-27 04:45:00,12.6,1.7,30.23,NW,307,6.0,10.0,61,0.00,,OVC021,0.00,0.00,VWS V14.01,2013-01-27 09:45:00,
2013-01-27 04:50:00,12.6,1.7,30.23,NW,308,4.0,7.0,61,0.00,,OVC021,0.00,0.00,VWS V14.01,2013-01-27 09:50:00,
2013-01-27 04:55:00,12.5,1.6,30.23,WNW,286,3.0,8.0,61,0.00,,OVC021,0.00,0.00,VWS V14.01,2013-01-27 09:55:00,
2013-01-27 05:00:00,12.5,1.6,30.23,NW,309,6.0,11.0,61,0.00,,OVC021,0.00,0.00,VWS V14.01,2013-01-27 10:00:00,
2013-01-27 05:05:00,12.7,1.8,30.23,NW,308,4.0,12.0,61,0.00,,OVC021,0.00,0.00,VWS V14.01,2013-01-27 10:05:00,
2013-01-27 05:10:00,12.7,1.8,30.23,WNW,294,6.0,11.0,61,0.00,,OVC021,0.00,0.00,VWS V14.01,2013-01-27 10:10:00,
2013-01-27 05:15:00,12.7,1.8,30.24,WNW,296,6.0,8.0,61,0.00,,OVC021,0.00,0.00,VWS V14.01,2013-01-27 10:15:00,
2013-01-27 05:20:00,12.7,1.8,30.24,NW,304,3.0,7.0,61,0.00,,OVC021,0.00,0.00,VWS V14.01,2013-01-27 10:20:00,
2013-01-27 05:25:00,12.7,1.5,30.24,NW,325,3.0,12.0,60,0.00,,OVC021,0.00,0.00,VWS V14.01,2013-01-27 10:25:00,
2013-01-27 05:30:00,12.8,1.5,30.24,WNW,303,5.0,11.0,60,0.00,,OVC021,0.00,0.00,VWS V14.01,2013-01-27 10:30:00,
2013-01-27 05:35:00,12.8,1.5,30.24,WNW,289,2.0,11.0,60,0.00,,OVC021,0.00,0.00,VWS V14.01,2013-01-27 10:35:00,
2013-01-27 05:40:00,12.8,1.5,30.24,WNW,292,3.0,7.0,60,0.00,,OVC021,0.00,0.00,VWS V14.01,2013-01-27 10:40:00,
2013-01-27 05:45:00,12.8,1.5,30.24,NW,319,3.0,7.0,60,0.00,,OVC021,0.00,0.00,VWS V14.01,2013-01-27 10:45:00,
2013-01-27 05:50:00,12.9,1.6,30.25,West,279,7.0,10.0,60,0.00,,OVC021,0.00,0.00,VWS V14.01,2013-01-27 10:50:00,
2013-01-27 05:55:00,12.8,1.5,30.25,WNW,292,4.0,9.0,60,0.00,,OVC021,0.00,0.00,VWS V14.01,2013-01-27 10:55:00,
2013-01-27 06:00:00,12.7,1.5,30.25,West,276,6.0,10.0,60,0.00,,OVC021,0.00,0.00,VWS V14.01,2013-01-27 11:00:00,
2013-01-27 06:05:00,12.7,1.5,30.25,West,280,4.0,8.0,60,0.00,,OVC021,0.00,0.00,VWS V14.01,2013-01-27 11:05:00,
2013-01-27 06:10:00,12.7,1.5,30.25,WNW,288,4.0,7.0,60,0.00,,OVC021,0.00,0.00,VWS V14.01,2013-01-27 11:10:00,
2013-01-27 06:15:00,12.7,1.5,30.25,West,272,4.0,10.0,60,0.00,,OVC021,0.00,0.00,VWS V14.01,2013-01-27 11:15:00,
2013-01-27 06:20:00,12.7,1.1,30.25,WNW,289,4.0,11.0,59,0.00,,OVC021,0.00,0.00,VWS V14.01,2013-01-27 11:20:00,
2013-01-27 06:25:00,12.8,1.2,30.25,WNW,299,5.0,8.0,59,0.00,,OVC021,0.00,0.00,VWS V14.01,2013-01-27 11:25:00,
2013-01-27 06:30:00,12.8,1.2,30.26,WNW,284,5.0,10.0,59,0.00,,OVC021,0.00,0.00,VWS V14.01,2013-01-27 11:30:00,
2013-01-27 06:35:00,12.9,1.3,30.26,West,272,5.0,12.0,59,0.00,,OVC021,0.00,0.00,VWS V14.01,2013-01-27 11:35:00,
2013-01-27 06:40:00,12.6,1.0,30.26,WNW,284,5.0,9.0,59,0.00,,OVC021,0.00,0.00,VWS V14.01,2013-01-27 11:40:00,
2013-01-27 06:45:00,12.3,1.1,30.26,West,269,4.0,9.0,60,0.00,,OVC021,0.00,0.00,VWS V14.01,2013-01-27 11:45:00,
2013-01-27 06:50:00,11.9,1.0,30.26,WNW,283,4.0,8.0,61,0.00,,OVC021,0.00,0.00,VWS V14.01,2013-01-27 11:50:00,
2013-01-27 06:55:00,11.7,0.9,30.27,West,265,2.0,12.0,61,0.00,,OVC021,0.00,0.00,VWS V14.01,2013-01-27 11:55:00,
2013-01-27 07:00:00,11.5,0.7,30.27,WSW,258,1.0,7.0,61,0.00,,OVC021,0.00,0.00,VWS V14.01,2013-01-27 12:00:00,
2013-01-27 07:05:00,11.3,0.8,30.27,WNW,291,2.0,5.0,62,0.00,,OVC021,0.00,5.00,VWS V14.01,2013-01-27 12:05:00,
2013-01-27 07:10:00,11.2,0.7,30.27,WNW,292,2.0,4.0,62,0.00,,OVC021,0.00,7.00,VWS V14.01,2013-01-27 12:10:00,
2013-01-27 07:15:00,11.2,0.7,30.27,West,275,4.0,6.0,62,0.00,,OVC021,0.00,9.00,VWS V14.01,2013-01-27 12:15:00,
2013-01-27 07:20:00,11.2,0.7,30.27,West,275,3.0,5.0,62,0.00,,OVC021,0.00,11.00,VWS V14.01,2013-01-27 12:20:00,
2013-01-27 07:25:00,11.4,0.9,30.27,WNW,294,3.0,7.0,62,0.00,,OVC021,0.00,16.00,VWS V14.01,2013-01-27 12:25:00,
2013-01-27 07:30:00,12.1,0.9,30.28,WNW,288,3.0,11.0,60,0.00,,OVC021,0.00,26.00,VWS V14.01,2013-01-27 12:30:00,
2013-01-27 07:35:00,12.7,1.1,30.28,NNW,328,4.0,8.0,59,0.00,,OVC021,0.00,44.00,VWS V14.01,2013-01-27 12:35:00,
2013-01-27 07:40:00,13.1,1.1,30.28,NW,308,6.0,7.0,58,0.00,,OVC021,0.00,56.00,VWS V14.01,2013-01-27 12:40:00,
2013-01-27 07:45:00,13.4,1.0,30.29,WNW,282,5.0,9.0,57,0.00,,OVC021,0.00,70.00,VWS V14.01,2013-01-27 12:45:00,
2013-01-27 07:50:00,13.6,1.2,30.29,West,280,4.0,7.0,57,0.00,,OVC021,0.00,84.00,VWS V14.01,2013-01-27 12:50:00,
2013-01-27 07:55:00,13.7,0.9,30.29,West,269,5.0,10.0,56,0.00,,OVC021,0.00,100.00,VWS V14.01,2013-01-27 12:55:00,
2013-01-27 08:00:00,13.8,1.4,30.29,WNW,299,1.0,6.0,57,0.00,,OVC021,0.00,116.00,VWS V14.01,2013-01-27 13:00:00,
2013-01-27 08:05:00,13.9,1.1,30.29,NW,317,3.0,7.0,56,0.00,,OVC021,0.00,130.00,VWS V14.01,2013-01-27 13:05:00,
2013-01-27 08:10:00,14.0,1.2,30.29,WNW,301,9.0,11.0,56,0.00,,OVC021,0.00,146.00,VWS V14.01,2013-01-27 13:10:00,
2013-01-27 08:15:00,14.2,1.4,30.30,West,261,4.0,12.0,56,0.00,,OVC021,0.00,162.00,VWS V14.01,2013-01-27 13:15:00,
2013-01-27 08:20:00,14.4,1.2,30.30,WNW,295,5.0,11.0,55,0.00,,OVC021,0.00,179.00,VWS V14.01,2013-01-27 13:20:00,
2013-01-27 08:25:00,14.7,1.5,30.30,NW,321,5.0,9.0,55,0.00,,OVC021,0.00,197.00,VWS V14.01,2013-01-27 13:25:00,
2013-01-27 08:30:00,14.9,0.9,30.30,WSW,246,10.0,16.0,53,0.00,,OVC021,0.00,214.00,VWS V14.01,2013-01-27 13:30:00,
2013-01-27 08:35:00,15.2,1.1,30.31,NW,321,6.0,13.0,53,0.00,,OVC021,0.00,229.00,VWS V14.01,2013-01-27 13:35:00,
2013-01-27 08:40:00,15.6,1.1,30.31,NW,308,1.0,11.0,52,0.00,,OVC021,0.00,243.00,VWS V14.01,2013-01-27 13:40:00,
2013-01-27 08:45:00,15.8,0.9,30.31,WNW,296,7.0,15.0,51,0.00,,OVC021,0.00,255.00,VWS V14.01,2013-01-27 13:45:00,
2013-01-27 08:50:00,15.9,0.6,30.31,West,265,6.0,17.0,50,0.00,,OVC021,0.00,269.00,VWS V14.01,2013-01-27 13:50:00,
2013-01-27 08:55:00,16.2,0.4,30.31,NW,320,9.0,13.0,49,0.00,,OVC021,0.00,281.00,VWS V14.01,2013-01-27 13:55:00,
2013-01-27 09:00:00,16.4,0.6,30.31,NNW,327,5.0,14.0,49,0.00,,OVC021,0.00,294.00,VWS V14.01,2013-01-27 14:00:00,
2013-01-27 09:05:00,16.6,0.3,30.31,NW,309,14.0,16.0,48,0.00,,OVC021,0.00,306.00,VWS V14.01,2013-01-27 14:05:00,
2013-01-27 09:10:00,16.8,0.1,30.32,NW,323,10.0,17.0,47,0.00,,OVC021,0.00,316.00,VWS V14.01,2013-01-27 14:10:00,
2013-01-27 09:15:00,17.1,-0.1,30.32,West,267,8.0,18.0,46,0.00,,OVC021,0.00,327.00,VWS V14.01,2013-01-27 14:15:00,
2013-01-27 09:20:00,17.2,0.0,30.32,NNW,339,15.0,17.0,46,0.00,,OVC021,0.00,339.00,VWS V14.01,2013-01-27 14:20:00,
2013-01-27 09:25:00,17.4,0.2,30.32,WNW,296,6.0,17.0,46,0.00,,OVC021,0.00,348.00,VWS V14.01,2013-01-27 14:25:00,
2013-01-27 09:30:00,17.7,0.0,30.32,NW,313,11.0,17.0,45,0.00,,OVC021,0.00,360.00,VWS V14.01,2013-01-27 14:30:00,
2013-01-27 09:35:00,18.0,-0.2,30.32,WNW,301,10.0,16.0,44,0.00,,OVC021,0.00,371.00,VWS V14.01,2013-01-27 14:35:00,
2013-01-27 09:40:00,18.2,-0.5,30.33,NW,319,7.0,12.0,43,0.00,,OVC021,0.00,381.00,VWS V14.01,2013-01-27 14:40:00,
2013-01-27 09:45:00,18.4,0.1,30.33,NW,310,10.0,16.0,44,0.00,,OVC021,0.00,388.00,VWS V14.01,2013-01-27 14:45:00,
2013-01-27 09:50:00,18.4,-0.9,30.33,WNW,292,13.0,18.0,42,0.00,,OVC021,0.00,399.00,VWS V14.01,2013-01-27 14:50:00,
2013-01-27 09:55:00,18.7,-0.1,30.33,WNW,302,13.0,15.0,43,0.00,,OVC021,0.00,408.00,VWS V14.01,2013-01-27 14:55:00,
2013-01-27 10:00:00,19.0,-0.3,30.33,NW,326,12.0,14.0,42,0.00,,OVC021,0.00,415.00,VWS V14.01,2013-01-27 15:00:00,
2013-01-27 10:05:00,19.3,0.0,30.33,NW,308,8.0,14.0,42,0.00,,OVC021,0.00,422.00,VWS V14.01,2013-01-27 15:05:00,
2013-01-27 10:10:00,19.3,-0.5,30.34,NW,321,11.0,17.0,41,0.00,,OVC021,0.00,431.00,VWS V14.01,2013-01-27 15:10:00,
2013-01-27 10:15:00,19.2,-1.1,30.34,WNW,300,12.0,20.0,40,0.00,,OVC021,0.00,439.00,VWS V14.01,2013-01-27 15:15:00,
2013-01-27 10:20:00,19.3,-1.1,30.33,NNW,327,13.0,18.0,40,0.00,,OVC021,0.00,445.00,VWS V14.01,2013-01-27 15:20:00,
2013-01-27 10:25:00,19.5,-0.9,30.34,WNW,285,8.0,17.0,40,0.00,,OVC021,0.00,452.00,VWS V14.01,2013-01-27 15:25:00,
2013-01-27 10:30:00,19.9,-0.5,30.34,NW,322,12.0,14.0,40,0.00,,OVC021,0.00,459.00,VWS V14.01,2013-01-27 15:30:00,
2013-01-27 10:35:00,20.0,-0.4,30.34,NW,321,14.0,18.0,40,0.00,,OVC021,0.00,464.00,VWS V14.01,2013-01-27 15:35:00,
2013-01-27 10:40:00,20.2,-0.8,30.34,NW,325,10.0,18.0,39,0.00,,OVC021,0.00,471.00,VWS V14.01,2013-01-27 15:40:00,
2013-01-27 10:45:00,20.4,-0.1,30.34,NW,323,10.0,17.0,40,0.00,,OVC021,0.00,476.00,VWS V14.01,2013-01-27 15:45:00,
2013-01-27 10:50:00,20.6,-0.4,30.33,NW,306,15.0,19.0,39,0.00,,OVC021,0.00,482.00,VWS V14.01,2013-01-27 15:50:00,
2013-01-27 10:55:00,21.0,-0.1,30.33,NW,324,18.0,18.0,39,0.00,,OVC021,0.00,483.00,VWS V14.01,2013-01-27 15:55:00,
2013-01-27 11:00:00,20.8,-0.2,30.33,NW,320,11.0,20.0,39,0.00,,OVC021,0.00,489.00,VWS V14.01,2013-01-27 16:00:00,
2013-01-27 11:05:00,21.4,0.3,30.33,WNW,288,13.0,15.0,39,0.00,,OVC021,0.00,494.00,VWS V14.01,2013-01-27 16:05:00,
2013-01-27 11:10:00,21.7,-0.6,30.33,NNW,327,8.0,15.0,37,0.00,,OVC021,0.00,497.00,VWS V14.01,2013-01-27 16:10:00,
2013-01-27 11:15:00,21.9,-0.4,30.33,NNW,327,15.0,17.0,37,0.00,,OVC021,0.00,501.00,VWS V14.01,2013-01-27 16:15:00,
2013-01-27 11:20:00,22.2,-0.1,30.33,NNW,338,7.0,19.0,37,0.00,,OVC021,0.00,501.00,VWS V14.01,2013-01-27 16:20:00,
2013-01-27 11:25:00,22.7,0.3,30.33,NW,321,13.0,18.0,37,0.00,,OVC021,0.00,503.00,VWS V14.01,2013-01-27 16:25:00,
2013-01-27 11:30:00,22.8,-0.1,30.33,NNW,328,9.0,18.0,36,0.00,,OVC021,0.00,506.00,VWS V14.01,2013-01-27 16:30:00,
2013-01-27 11:35:00,23.1,0.1,30.33,NNW,342,6.0,12.0,36,0.00,,OVC021,0.00,506.00,VWS V14.01,2013-01-27 16:35:00,
2013-01-27 11:40:00,23.0,-0.6,30.33,NNW,336,13.0,24.0,35,0.00,,OVC021,0.00,504.00,VWS V14.01,2013-01-27 16:40:00,
2013-01-27 11:45:00,23.0,-0.6,30.33,WNW,302,13.0,18.0,35,0.00,,OVC021,0.00,508.00,VWS V14.01,2013-01-27 16:45:00,
2013-01-27 11:50:00,23.1,0.1,30.33,NW,313,5.0,15.0,36,0.00,,OVC021,0.00,504.00,VWS V14.01,2013-01-27 16:50:00,
2013-01-27 11:55:00,23.6,0.6,30.33,NNW,327,5.0,15.0,36,0.00,,OVC021,0.00,504.00,VWS V14.01,2013-01-27 16:55:00,
2013-01-27 12:00:00,23.9,-0.4,30.33,NNW,329,13.0,19.0,34,0.00,,OVC021,0.00,506.00,VWS V14.01,2013-01-27 17:00:00,
2013-01-27 12:05:00,23.6,0.0,30.33,WNW,297,11.0,18.0,35,0.00,,OVC021,0.00,506.00,VWS V14.01,2013-01-27 17:05:00,
2013-01-27 12:10:00,23.8,-0.5,30.32,North,5,8.0,17.0,34,0.00,,OVC021,0.00,503.00,VWS V14.01,2013-01-27 17:10:00,
2013-01-27 12:15:00,23.9,-0.4,30.33,NW,306,12.0,18.0,34,0.00,,OVC021,0.00,501.00,VWS V14.01,2013-01-27 17:15:00,
2013-01-27 12:20:00,24.0,0.3,30.32,NNW,339,18.0,18.0,35,0.00,,OVC021,0.00,499.00,VWS V14.01,2013-01-27 17:20:00,
2013-01-27 12:25:00,24.3,-0.6,30.32,North,360,9.0,18.0,33,0.00,,OVC021,0.00,497.00,VWS V14.01,2013-01-27 17:25:00,
2013-01-27 12:30:00,24.3,-0.6,30.32,NW,323,9.0,17.0,33,0.00,,OVC021,0.00,492.00,VWS V14.01,2013-01-27 17:30:00,
2013-01-27 12:35:00,24.6,0.2,30.32,WNW,285,9.0,16.0,34,0.00,,OVC021,0.00,489.00,VWS V14.01,2013-01-27 17:35:00,
2013-01-27 12:40:00,25.0,0.0,30.32,NW,306,9.0,20.0,33,0.00,,OVC021,0.00,475.00,VWS V14.01,2013-01-27 17:40:00,
2013-01-27 12:45:00,25.0,0.0,30.32,WNW,300,15.0,16.0,33,0.00,,OVC021,0.00,369.00,VWS V14.01,2013-01-27 17:45:00,
2013-01-27 12:50:00,24.9,-0.1,30.32,NNW,327,13.0,18.0,33,0.00,,OVC021,0.00,183.00,VWS V14.01,2013-01-27 17:50:00,
2013-01-27 12:55:00,25.1,-0.6,30.32,NW,304,10.0,14.0,32,0.00,,OVC021,0.00,54.00,VWS V14.01,2013-01-27 17:55:00,
2013-01-27 13:00:00,25.3,-0.4,30.31,North,5,11.0,17.0,32,0.00,,OVC021,0.00,33.00,VWS V14.01,2013-01-27 18:00:00,
2013-01-27 13:05:00,25.2,-0.5,30.32,NW,324,9.0,17.0,32,0.00,,OVC021,0.00,33.00,VWS V14.01,2013-01-27 18:05:00,
2013-01-27 13:10:00,25.5,-0.9,30.32,NW,312,12.0,14.0,31,0.00,,OVC021,0.00,33.00,VWS V14.01,2013-01-27 18:10:00,
2013-01-27 13:15:00,25.7,-0.7,30.32,NNW,333,8.0,18.0,31,0.00,,OVC021,0.00,32.00,VWS V14.01,2013-01-27 18:15:00,
2013-01-27 13:20:00,26.0,-1.2,30.32,NW,313,7.0,16.0,30,0.00,,OVC021,0.00,32.00,VWS V14.01,2013-01-27 18:20:00,
2013-01-27 13:25:00,26.0,-1.2,30.31,NW,323,8.0,18.0,30,0.00,,OVC021,0.00,32.00,VWS V14.01,2013-01-27 18:25:00,
2013-01-27 13:30:00,26.2,-1.0,30.31,NNW,329,11.0,17.0,30,0.00,,OVC021,0.00,32.00,VWS V14.01,2013-01-27 18:30:00,
2013-01-27 13:35:00,26.4,-0.8,30.31,WNW,295,17.0,19.0,30,0.00,,OVC021,0.00,32.00,VWS V14.01,2013-01-27 18:35:00,
2013-01-27 13:40:00,26.5,-1.5,30.31,NW,308,14.0,21.0,29,0.00,,OVC021,0.00,32.00,VWS V14.01,2013-01-27 18:40:00,
2013-01-27 13:45:00,26.7,-1.3,30.31,NW,312,6.0,20.0,29,0.00,,OVC021,0.00,32.00,VWS V14.01,2013-01-27 18:45:00,
2013-01-27 13:50:00,27.3,-1.5,30.31,NW,321,12.0,13.0,28,0.00,,OVC021,0.00,32.00,VWS V14.01,2013-01-27 18:50:00,
2013-01-27 13:55:00,27.3,-0.8,30.31,WNW,288,4.0,14.0,29,0.00,,OVC021,0.00,30.00,VWS V14.01,2013-01-27 18:55:00,
2013-01-27 14:00:00,27.7,-0.4,30.31,WNW,294,15.0,15.0,29,0.00,,OVC021,0.00,30.00,VWS V14.01,2013-01-27 19:00:00,
2013-01-27 14:05:00,27.4,-1.4,30.30,NW,315,17.0,20.0,28,0.00,,OVC021,0.00,30.00,VWS V14.01,2013-01-27 19:05:00,
2013-01-27 14:10:00,27.5,-1.3,30.30,NW,313,7.0,18.0,28,0.00,,OVC021,0.00,30.00,VWS V14.01,2013-01-27 19:10:00,
2013-01-27 14:15:00,27.9,-1.0,30.31,NW,305,14.0,18.0,28,0.00,,OVC021,0.00,30.00,VWS V14.01,2013-01-27 19:15:00,
2013-01-27 14:20:00,27.7,-1.1,30.31,NW,323,13.0,20.0,28,0.00,,OVC021,0.00,30.00,VWS V14.01,2013-01-27 19:20:00,
2013-01-27 14:25:00,27.9,-0.2,30.31,NW,321,6.0,20.0,29,0.00,,OVC021,0.00,30.00,VWS V14.01,2013-01-27 19:25:00,
2013-01-27 14:30:00,28.2,-0.7,30.31,NW,323,6.0,16.0,28,0.00,,OVC021,0.00,30.00,VWS V14.01,2013-01-27 19:30:00,
2013-01-27 14:35:00,28.0,-0.9,30.31,NW,317,9.0,23.0,28,0.00,,OVC021,0.00,32.00,VWS V14.01,2013-01-27 19:35:00,
2013-01-27 14:40:00,28.3,-0.6,30.31,NW,325,14.0,14.0,28,0.00,,OVC021,0.00,62.00,VWS V14.01,2013-01-27 19:40:00,
2013-01-27 14:45:00,28.1,-0.8,30.30,NW,304,5.0,15.0,28,0.00,,OVC021,0.00,128.00,VWS V14.01,2013-01-27 19:45:00,
2013-01-27 14:50:00,28.4,-0.5,30.31,NNW,332,7.0,14.0,28,0.00,,OVC021,0.00,192.00,VWS V14.01,2013-01-27 19:50:00,
2013-01-27 14:55:00,28.5,-0.4,30.31,WNW,285,8.0,13.0,28,0.00,,OVC021,0.00,239.00,VWS V14.01,2013-01-27 19:55:00,
2013-01-27 15:00:00,28.5,-0.4,30.31,WNW,299,12.0,18.0,28,0.00,,OVC021,0.00,250.00,VWS V14.01,2013-01-27 20:00:00,
2013-01-27 15:05:00,28.3,-0.6,30.31,NW,306,15.0,18.0,28,0.00,,OVC021,0.00,237.00,VWS V14.01,2013-01-27 20:05:00,
2013-01-27 15:10:00,28.4,-0.5,30.31,NW,307,10.0,15.0,28,0.00,,OVC021,0.00,221.00,VWS V14.01,2013-01-27 20:10:00,
2013-01-27 15:15:00,28.5,-0.4,30.31,NW,306,7.0,16.0,28,0.00,,OVC021,0.00,192.00,VWS V14.01,2013-01-27 20:15:00,
2013-01-27 15:20:00,28.7,-0.3,30.31,NW,310,9.0,15.0,28,0.00,,OVC021,0.00,151.00,VWS V14.01,2013-01-27 20:20:00,
2013-01-27 15:25:00,28.7,-0.3,30.31,NW,304,5.0,12.0,28,0.00,,OVC021,0.00,132.00,VWS V14.01,2013-01-27 20:25:00,
2013-01-27 15:30:00,28.8,-0.2,30.30,NW,316,5.0,11.0,28,0.00,,OVC021,0.00,123.00,VWS V14.01,2013-01-27 20:30:00,
2013-01-27 15:35:00,28.8,-0.2,30.30,NNW,332,7.0,10.0,28,0.00,,OVC021,0.00,125.00,VWS V14.01,2013-01-27 20:35:00,
2013-01-27 15:40:00,29.0,0.0,30.31,NW,306,5.0,9.0,28,0.00,,OVC021,0.00,125.00,VWS V14.01,2013-01-27 20:40:00,
2013-01-27 15:45:00,28.9,-0.1,30.31,NW,316,9.0,13.0,28,0.00,,OVC021,0.00,121.00,VWS V14.01,2013-01-27 20:45:00,
2013-01-27 15:50:00,28.6,-0.4,30.31,WNW,286,14.0,17.0,28,0.00,,OVC021,0.00,105.00,VWS V14.01,2013-01-27 20:50:00,
2013-01-27 15:55:00,28.4,-0.5,30.31,West,268,11.0,16.0,28,0.00,,OVC021,0.00,90.00,VWS V14.01,2013-01-27 20:55:00,
2013-01-27 16:00:00,28.4,-0.5,30.31,WNW,293,9.0,11.0,28,0.00,,OVC021,0.00,79.00,VWS V14.01,2013-01-27 21:00:00,
2013-01-27 16:05:00,28.3,-0.6,30.31,NW,304,7.0,15.0,28,0.00,,OVC021,0.00,65.00,VWS V14.01,2013-01-27 21:05:00,
2013-01-27 16:10:00,28.2,-0.7,30.31,NW,307,6.0,13.0,28,0.00,,OVC021,0.00,51.00,VWS V14.01,2013-01-27 21:10:00,
2013-01-27 16:15:00,28.2,-0.7,30.31,NW,311,6.0,10.0,28,0.00,,OVC021,0.00,40.00,VWS V14.01,2013-01-27 21:15:00,
2013-01-27 16:20:00,28.0,-1.6,30.31,NW,321,6.0,15.0,27,0.00,,OVC021,0.00,30.00,VWS V14.01,2013-01-27 21:20:00,
2013-01-27 16:25:00,27.9,-1.0,30.31,WNW,302,5.0,12.0,28,0.00,,OVC021,0.00,21.00,VWS V14.01,2013-01-27 21:25:00,
2013-01-27 16:30:00,27.7,-1.1,30.32,NW,307,5.0,13.0,28,0.00,,OVC021,0.00,14.00,VWS V14.01,2013-01-27 21:30:00,
2013-01-27 16:35:00,27.5,-2.1,30.32,NNW,331,7.0,14.0,27,0.00,,OVC021,0.00,12.00,VWS V14.01,2013-01-27 21:35:00,
2013-01-27 16:40:00,27.4,-1.4,30.32,NW,313,4.0,15.0,28,0.00,,OVC021,0.00,11.00,VWS V14.01,2013-01-27 21:40:00,
2013-01-27 16:45:00,27.2,-1.6,30.33,NNW,335,6.0,14.0,28,0.00,,OVC021,0.00,7.00,VWS V14.01,2013-01-27 21:45:00,
2013-01-27 16:50:00,27.1,-1.7,30.33,NW,322,10.0,14.0,28,0.00,,OVC021,0.00,5.00,VWS V14.01,2013-01-27 21:50:00,
2013-01-27 16:55:00,27.0,-1.8,30.33,NW,323,14.0,15.0,28,0.00,,OVC021,0.00,0.00,VWS V14.01,2013-01-27 21:55:00,
2013-01-27 17:00:00,26.9,-1.8,30.33,NW,325,8.0,16.0,28,0.00,,OVC021,0.00,0.00,VWS V14.01,2013-01-27 22:00:00,
2013-01-27 17:05:00,26.6,-2.1,30.33,NW,325,11.0,14.0,28,0.00,,OVC021,0.00,0.00,VWS V14.01,2013-01-27 22:05:00,
2013-01-27 17:10:00,26.4,-1.5,30.33,WNW,283,5.0,12.0,29,0.00,,OVC021,0.00,0.00,VWS V14.01,2013-01-27 22:10:00,
2013-01-27 17:15:00,26.3,-1.6,30.34,NNW,329,5.0,11.0,29,0.00,,OVC021,0.00,0.00,VWS V14.01,2013-01-27 22:15:00,
2013-01-27 17:20:00,26.2,-1.7,30.34,NW,311,5.0,14.0,29,0.00,,OVC021,0.00,0.00,VWS V14.01,2013-01-27 22:20:00,
2013-01-27 17:25:00,26.1,-1.8,30.34,NW,318,9.0,12.0,29,0.00,,OVC021,0.00,0.00,VWS V14.01,2013-01-27 22:25:00,
2013-01-27 17:30:00,26.0,-1.9,30.35,WNW,300,5.0,12.0,29,0.00,,OVC021,0.00,0.00,VWS V14.01,2013-01-27 22:30:00,
2013-01-27 17:35:00,25.8,-2.1,30.35,WNW,300,6.0,11.0,29,0.00,,OVC021,0.00,0.00,VWS V14.01,2013-01-27 22:35:00,
2013-01-27 17:40:00,25.8,-2.1,30.35,NW,315,11.0,13.0,29,0.00,,OVC021,0.00,0.00,VWS V14.01,2013-01-27 22:40:00,
2013-01-27 17:45:00,25.6,-1.5,30.35,NW,309,5.0,11.0,30,0.00,,OVC021,0.00,0.00,VWS V14.01,2013-01-27 22:45:00,
2013-01-27 17:50:00,25.3,-1.8,30.35,WNW,302,9.0,10.0,30,0.00,,OVC021,0.00,0.00,VWS V14.01,2013-01-27 22:50:00,
2013-01-27 17:55:00,25.1,-2.0,30.36,WNW,288,8.0,10.0,30,0.00,,OVC021,0.00,0.00,VWS V14.01,2013-01-27 22:55:00,
2013-01-27 18:00:00,25.1,-2.7,30.36,WNW,298,3.0,12.0,29,0.00,,OVC021,0.00,0.00,VWS V14.01,2013-01-27 23:00:00,
2013-01-27 18:05:00,25.0,-2.8,30.37,NW,310,5.0,12.0,29,0.00,,OVC021,0.00,0.00,VWS V14.01,2013-01-27 23:05:00,
2013-01-27 18:10:00,25.1,-3.4,30.37,WNW,292,7.0,14.0,28,0.00,,OVC021,0.00,0.00,VWS V14.01,2013-01-27 23:10:00,
2013-01-27 18:15:00,25.0,-3.5,30.37,NW,308,7.0,13.0,28,0.00,,OVC021,0.00,0.00,VWS V14.01,2013-01-27 23:15:00,
2013-01-27 18:20:00,24.8,-3.7,30.37,NW,312,4.0,12.0,28,0.00,,OVC021,0.00,0.00,VWS V14.01,2013-01-27 23:20:00,
2013-01-27 18:25:00,24.8,-3.7,30.37,WNW,300,3.0,14.0,28,0.00,,OVC021,0.00,0.00,VWS V14.01,2013-01-27 23:25:00,
2013-01-27 18:30:00,24.7,-3.8,30.37,WNW,282,7.0,10.0,28,0.00,,OVC021,0.00,0.00,VWS V14.01,2013-01-27 23:30:00,
2013-01-27 18:35:00,24.5,-3.9,30.37,NW,309,4.0,8.0,28,0.00,,OVC021,0.00,0.00,VWS V14.01,2013-01-27 23:35:00,
2013-01-27 18:40:00,24.3,-3.4,30.37,NW,305,3.0,7.0,29,0.00,,OVC021,0.00,0.00,VWS V14.01,2013-01-27 23:40:00,
2013-01-27 18:45:00,24.1,-3.5,30.37,WNW,286,5.0,6.0,29,0.00,,OVC021,0.00,0.00,VWS V14.01,2013-01-27 23:45:00,
2013-01-27 18:50:00,23.8,-3.8,30.37,NW,306,2.0,8.0,29,0.00,,OVC021,0.00,0.00,VWS V14.01,2013-01-27 23:50:00,
2013-01-27 18:55:00,23.6,-3.3,30.37,NW,313,7.0,8.0,30,0.00,,OVC021,0.00,0.00,VWS V14.01,2013-01-27 23:55:00,
2013-01-27 19:00:00,23.5,-3.4,30.37,WNW,286,10.0,10.0,30,0.00,,OVC021,0.00,0.00,VWS V14.01,2013-01-28 00:00:00,
2013-01-27 19:05:00,23.5,-4.1,30.38,NW,317,6.0,12.0,29,0.00,,OVC021,0.00,0.00,VWS V14.01,2013-01-28 00:05:00,
2013-01-27 19:10:00,23.3,-4.2,30.38,WNW,294,7.0,10.0,29,0.00,,OVC021,0.00,0.00,VWS V14.01,2013-01-28 00:10:00,
2013-01-27 19:15:00,23.4,-4.9,30.39,NW,317,11.0,12.0,28,0.00,,OVC021,0.00,0.00,VWS V14.01,2013-01-28 00:15:00,
2013-01-27 19:20:00,23.5,-4.8,30.39,WNW,292,5.0,14.0,28,0.00,,OVC021,0.00,0.00,VWS V14.01,2013-01-28 00:20:00,
2013-01-27 19:25:00,23.3,-5.0,30.39,NW,304,9.0,12.0,28,0.00,,OVC021,0.00,0.00,VWS V14.01,2013-01-28 00:25:00,
2013-01-27 19:30:00,23.3,-5.0,30.39,NW,304,7.0,10.0,28,0.00,,OVC021,0.00,0.00,VWS V14.01,2013-01-28 00:30:00,
2013-01-27 19:35:00,23.1,-5.2,30.39,NW,315,9.0,10.0,28,0.00,,OVC021,0.00,0.00,VWS V14.01,2013-01-28 00:35:00,
2013-01-27 19:40:00,23.0,-6.0,30.38,NW,305,4.0,9.0,27,0.00,,OVC021,0.00,0.00,VWS V14.01,2013-01-28 00:40:00,
2013-01-27 19:45:00,22.9,-5.3,30.38,NNW,329,9.0,9.0,28,0.00,,OVC021,0.00,0.00,VWS V14.01,2013-01-28 00:45:00,
2013-01-27 19:50:00,23.0,-6.0,30.38,WNW,289,7.0,11.0,27,0.00,,OVC021,0.00,0.00,VWS V14.01,2013-01-28 00:50:00,
2013-01-27 19:55:00,23.0,-5.2,30.38,NNW,333,6.0,14.0,28,0.00,,OVC021,0.00,0.00,VWS V14.01,2013-01-28 00:55:00,
2013-01-27 20:00:00,23.0,-5.2,30.38,NW,310,4.0,14.0,28,0.00,,OVC021,0.00,0.00,VWS V14.01,2013-01-28 01:00:00,
2013-01-27 20:05:00,22.9,-5.3,30.38,WNW,298,5.0,10.0,28,0.00,,OVC021,0.00,0.00,VWS V14.01,2013-01-28 01:05:00,
2013-01-27 20:10:00,23.0,-4.5,30.39,WNW,291,7.0,14.0,29,0.00,,OVC021,0.00,0.00,VWS V14.01,2013-01-28 01:10:00,
2013-01-27 20:15:00,22.9,-3.9,30.39,WNW,296,3.0,11.0,30,0.00,,OVC021,0.00,0.00,VWS V14.01,2013-01-28 01:15:00,
2013-01-27 20:20:00,22.6,-3.5,30.39,WNW,300,5.0,8.0,31,0.00,,OVC021,0.00,0.00,VWS V14.01,2013-01-28 01:20:00,
2013-01-27 20:25:00,22.4,-3.7,30.38,NW,310,2.0,9.0,31,0.00,,OVC021,0.00,0.00,VWS V14.01,2013-01-28 01:25:00,
2013-01-27 20:30:00,22.1,-3.2,30.39,WNW,303,5.0,9.0,32,0.00,,OVC021,0.00,0.00,VWS V14.01,2013-01-28 01:30:00,
2013-01-27 20:35:00,22.0,-3.3,30.38,NW,304,6.0,8.0,32,0.00,,OVC021,0.00,0.00,VWS V14.01,2013-01-28 01:35:00,
2013-01-27 20:40:00,21.9,-3.4,30.38,WNW,295,3.0,7.0,32,0.00,,OVC021,0.00,0.00,VWS V14.01,2013-01-28 01:40:00,
2013-01-27 20:45:00,21.8,-3.5,30.38,NW,315,4.0,6.0,32,0.00,,OVC021,0.00,0.00,VWS V14.01,2013-01-28 01:45:00,
2013-01-27 20:50:00,21.7,-3.6,30.38,NW,304,1.0,6.0,32,0.00,,OVC021,0.00,0.00,VWS V14.01,2013-01-28 01:50:00,
2013-01-27 20:55:00,21.7,-3.0,30.38,NW,311,3.0,5.0,33,0.00,,OVC021,0.00,0.00,VWS V14.01,2013-01-28 01:55:00,
2013-01-27 21:00:00,21.5,-3.1,30.37,WNW,303,2.0,7.0,33,0.00,,OVC021,0.00,0.00,VWS V14.01,2013-01-28 02:00:00,
2013-01-27 21:05:00,21.3,-3.3,30.37,WNW,292,5.0,6.0,33,0.00,,OVC021,0.00,0.00,VWS V14.01,2013-01-28 02:05:00,
2013-01-27 21:10:00,21.2,-3.4,30.37,WNW,293,4.0,5.0,33,0.00,,OVC021,0.00,0.00,VWS V14.01,2013-01-28 02:10:00,
2013-01-27 21:15:00,21.0,-3.0,30.37,WNW,293,2.0,4.0,34,0.00,,OVC021,0.00,0.00,VWS V14.01,2013-01-28 02:15:00,
2013-01-27 21:20:00,20.8,-3.1,30.37,WNW,290,2.0,7.0,34,0.00,,OVC021,0.00,0.00,VWS V14.01,2013-01-28 02:20:00,
2013-01-27 21:25:00,20.6,-3.3,30.37,WNW,294,2.0,4.0,34,0.00,,OVC021,0.00,0.00,VWS V14.01,2013-01-28 02:25:00,
2013-01-27 21:30:00,20.6,-3.3,30.37,NW,313,2.0,6.0,34,0.00,,OVC021,0.00,0.00,VWS V14.01,2013-01-28 02:30:00,
2013-01-27 21:35:00,20.4,-2.9,30.37,WNW,287,4.0,7.0,35,0.00,,OVC021,0.00,0.00,VWS V14.01,2013-01-28 02:35:00,
2013-01-27 21:40:00,20.3,-3.0,30.38,WNW,290,2.0,4.0,35,0.00,,OVC021,0.00,0.00,VWS V14.01,2013-01-28 02:40:00,
2013-01-27 21:45:00,20.1,-3.2,30.38,WNW,287,4.0,6.0,35,0.00,,OVC021,0.00,0.00,VWS V14.01,2013-01-28 02:45:00,
2013-01-27 21:50:00,20.1,-3.2,30.38,WNW,302,3.0,5.0,35,0.00,,OVC021,0.00,0.00,VWS V14.01,2013-01-28 02:50:00,
2013-01-27 21:55:00,20.2,-3.1,30.39,WNW,292,2.0,6.0,35,0.00,,OVC021,0.00,0.00,VWS V14.01,2013-01-28 02:55:00,
2013-01-27 22:00:00,20.1,-2.6,30.38,WNW,294,3.0,5.0,36,0.00,,OVC021,0.00,0.00,VWS V14.01,2013-01-28 03:00:00,
2013-01-27 22:05:00,20.0,-2.7,30.38,NW,312,1.0,4.0,36,0.00,,OVC021,0.00,0.00,VWS V14.01,2013-01-28 03:05:00,
2013-01-27 22:10:00,20.1,-2.6,30.38,NW,304,3.0,6.0,36,0.00,,OVC021,0.00,0.00,VWS V14.01,2013-01-28 03:10:00,
2013-01-27 22:15:00,20.0,-2.7,30.38,WNW,297,2.0,4.0,36,0.00,,OVC021,0.00,0.00,VWS V14.01,2013-01-28 03:15:00,
2013-01-27 22:20:00,19.7,-2.9,30.38,WNW,296,4.0,4.0,36,0.00,,OVC021,0.00,0.00,VWS V14.01,2013-01-28 03:20:00,
2013-01-27 22:25:00,19.3,-2.7,30.38,WNW,296,1.0,4.0,37,0.00,,OVC021,0.00,0.00,VWS V14.01,2013-01-28 03:25:00,
2013-01-27 22:30:00,19.1,-2.9,30.38,WNW,297,1.0,2.0,37,0.00,,OVC021,0.00,0.00,VWS V14.01,2013-01-28 03:30:00,
2013-01-27 22:35:00,18.8,-2.0,30.38,WNW,296,4.0,4.0,39,0.00,,OVC021,0.00,0.00,VWS V14.01,2013-01-28 03:35:00,
2013-01-27 22:40:00,18.4,-2.4,30.39,WNW,297,2.0,4.0,39,0.00,,OVC021,0.00,0.00,VWS V14.01,2013-01-28 03:40:00,
2013-01-27 22:45:00,18.3,-2.5,30.39,WNW,296,2.0,3.0,39,0.00,,OVC021,0.00,0.00,VWS V14.01,2013-01-28 03:45:00,
2013-01-27 22:50:00,18.3,-2.0,30.39,WNW,297,1.0,3.0,40,0.00,,OVC021,0.00,0.00,VWS V14.01,2013-01-28 03:50:00,
2013-01-27 22:55:00,17.9,-1.3,30.40,WNW,297,2.0,3.0,42,0.00,,OVC021,0.00,0.00,VWS V14.01,2013-01-28 03:55:00,
2013-01-27 23:00:00,17.5,-2.2,30.40,WNW,298,4.0,5.0,41,0.00,,OVC021,0.00,0.00,VWS V14.01,2013-01-28 04:00:00,
2013-01-27 23:05:00,17.6,-2.1,30.40,WNW,297,3.0,5.0,41,0.00,,OVC021,0.00,0.00,VWS V14.01,2013-01-28 04:05:00,
2013-01-27 23:10:00,17.7,-2.0,30.40,WNW,290,3.0,5.0,41,0.00,,OVC021,0.00,0.00,VWS V14.01,2013-01-28 04:10:00,
2013-01-27 23:15:00,17.7,-1.5,30.40,West,281,3.0,5.0,42,0.00,,OVC021,0.00,0.00,VWS V14.01,2013-01-28 04:15:00,
2013-01-27 23:20:00,17.7,-1.5,30.40,WNW,290,2.0,6.0,42,0.00,,OVC021,0.00,0.00,VWS V14.01,2013-01-28 04:20:00,
2013-01-27 23:25:00,17.7,-1.5,30.40,WNW,284,4.0,4.0,42,0.00,,OVC021,0.00,0.00,VWS V14.01,2013-01-28 04:25:00,
2013-01-27 23:30:00,17.6,-1.1,30.40,WNW,284,3.0,5.0,43,0.00,,OVC021,0.00,0.00,VWS V14.01,2013-01-28 04:30:00,
2013-01-27 23:35:00,17.6,-1.1,30.40,WNW,288,3.0,5.0,43,0.00,,OVC021,0.00,0.00,VWS V14.01,2013-01-28 04:35:00,
2013-01-27 23:40:00,17.7,-1.0,30.40,WNW,288,3.0,4.0,43,0.00,,OVC021,0.00,0.00,VWS V14.01,2013-01-28 04:40:00,
2013-01-27 23:45:00,17.7,-1.0,30.40,WNW,288,1.0,4.0,43,0.00,,OVC021,0.00,0.00,VWS V14.01,2013-01-28 04:45:00,
2013-01-27 23:50:00,17.7,-1.0,30.39,WNW,288,1.0,3.0,43,0.00,,OVC021,0.00,0.00,VWS V14.01,2013-01-28 04:50:00,
2013-01-27 23:55:00,17.6,-0.6,30.38,WNW,288,1.0,4.0,44,0.00,,OVC021,0.00,0.00,VWS V14.01,2013-01-28 04:55:00,